Location: Brantley
(31.5822°N, 86.2569°W)
Time: 01:27:57
(UTC+00:00)

Vanguard 3 - Pass Details

Date: 21 February 2026
Orbit: 507 x 3205 km, 33.4° (Epoch: 10 March)

Event Time Altitude Azimuth Distance (km) Brightness Sun altitude
Rises 22:11:16 0° 264° (W) 5,964 13.0 16.5°
Reaches altitude 10° 22:15:53 10° 265° (W) 4,525 12.7 15.6°
Maximum altitude 22:27:17 81° 353° (N) 1,298 8.4 13.4°
Drops below altitude 10° 22:33:29 10° 81° (E) 2,572 9.2 12.2°
Sets 22:35:28 0° 83° (E) 3,294 9.6 11.8°
